Ephrata, WA

4:15 AM PDT on July 23, 2017 (GMT -0700)
Ephrata Municipal

Weather History for KEPH - March, 2012

Change the Weather History Date:

Wednesday, March 28, 2012

  Actual Average Record
Temperature  
Mean Temperature 48 °F 46 °F  
Max Temperature 58 °F 58 °F 74 °F (1994)
Min Temperature 37 °F 35 °F 21 °F (1954)
Degree Days  
Heating Degree Days 17 19  
Month to date heating degree days 549 630  
Since 1 July heating degree days 5000 5203  
Cooling Degree Days 0 0  
Month to date cooling degree days 0 0  
Year to date cooling degree days 0 0  
Moisture  
Dew Point 35 °F    
Average Humidity 68    
Maximum Humidity 100    
Minimum Humidity 35    
Precipitation  
Precipitation 0.00 in 0.02 in 0.27 in (1978)
Month to date precipitation 0.42 0.62  
Year to date precipitation 1.33 2.27  
Sea Level Pressure  
Sea Level Pressure 29.69 in    
Wind  
Wind Speed 13 mph (SSW)    
Max Wind Speed 32 mph    
Max Gust Speed 41 mph    
Visibility 7 miles    
Events Fog    
T = Trace of Precipitation, MM = Missing Value Source: NWS Daily Summary

Daily Weather History Graph

Daily Weather History Graph

Search for Another Location

Airport or City:

Trip Planner

Search our weather history database for the weather conditions in past years. The results will help you decide how hot, cold, wet, or windy it might be!

Date:

Astronomy

Mar. 28, 2012 Rise Set
Actual Time 6:43 AM PDT 7:22 PM PDT
Civil Twilight 6:12 AM PDT 7:53 PM PDT
Nautical Twilight 5:36 AM PDT 8:30 PM PDT
Astronomical Twilight 4:58 AM PDT 9:09 PM PDT
Moon 9:43 AM PDT (3/28) 12:49 AM PDT (3/28)
Length of Visible Light 13h 40m
Length of Day
12h 39m
Waxing Crescent, 31% of the Moon is Illuminated
Mar 28
Waxing Crescent
Mar 30
First Quarter
Apr 6
Full
Apr 13
Last Quarter
Apr 21
New

Hourly Weather History & Observations

Time (PDT) Temp. Windchill Dew Point Humidity Pressure Visibility Wind Dir Wind Speed Gust Speed Precip Events Conditions
12:53 AM 46.0 °F - 44.1 °F 93% 29.64 in 10.0 mi Calm Calm - 0.03 in   Overcast
1:53 AM 44.1 °F 41.5 °F 42.1 °F 93% 29.62 in 10.0 mi NNE 4.6 mph - N/A   Scattered Clouds
2:53 AM 44.1 °F 41.5 °F 43.0 °F 96% 29.62 in 10.0 mi North 4.6 mph - N/A   Overcast
3:53 AM 39.9 °F 37.8 °F 39.9 °F 100% 29.63 in 9.0 mi NNW 3.5 mph - N/A   Partly Cloudy
4:15 AM 41.0 °F - 39.2 °F 93% 29.62 in 7.0 mi Calm Calm - N/A   Mostly Cloudy
4:46 AM 41.0 °F - 39.2 °F 93% 29.61 in 8.0 mi Calm Calm - N/A   Scattered Clouds
4:53 AM 41.0 °F - 39.9 °F 96% 29.62 in 6.0 mi Calm Calm - N/A   Partly Cloudy
5:09 AM 39.2 °F 34.2 °F 37.4 °F 93% 29.60 in 1.8 mi ENE 6.9 mph - N/A   Partly Cloudy
5:21 AM 39.2 °F 37.0 °F 39.2 °F 100% 29.60 in 4.0 mi NE 3.5 mph - N/A   Mostly Cloudy
5:38 AM 39.2 °F 34.2 °F 39.2 °F 100% 29.60 in 2.0 mi East 6.9 mph - N/A   Overcast
5:45 AM 39.2 °F 37.0 °F 39.2 °F 100% 29.60 in 1.0 mi SE 3.5 mph - N/A   Overcast
5:53 AM 37.9 °F 34.4 °F 37.9 °F 100% 29.62 in 0.5 mi SSE 4.6 mph - N/A Fog Fog
6:07 AM 37.4 °F - 37.4 °F 100% 29.61 in 0.2 mi Calm Calm - N/A Fog Fog
6:28 AM 37.4 °F - 37.4 °F 100% 29.62 in 0.5 mi Calm Calm - N/A Fog Fog
6:53 AM 37.0 °F - 37.0 °F 100% 29.66 in 0.2 mi Calm Calm - N/A Fog Fog
7:10 AM 37.4 °F 34.9 °F 35.6 °F 93% 29.64 in 0.8 mi South 3.5 mph - N/A   Mist
7:15 AM 37.4 °F 32.8 °F 35.6 °F 93% 29.64 in 1.2 mi South 5.8 mph - N/A   Scattered Clouds
7:20 AM 37.4 °F 32.1 °F 37.4 °F 100% 29.64 in 3.0 mi SSW 6.9 mph - N/A   Partly Cloudy
7:53 AM 39.0 °F 31.8 °F 37.0 °F 93% 29.67 in 10.0 mi SSW 11.5 mph - N/A   Partly Cloudy
8:53 AM 41.0 °F 35.2 °F 37.9 °F 89% 29.69 in 10.0 mi SW 9.2 mph - N/A   Clear
9:53 AM 48.0 °F - 39.0 °F 71% 29.70 in 10.0 mi SW 16.1 mph - N/A   Clear
10:53 AM 52.0 °F - 32.0 °F 47% 29.73 in 10.0 mi SW 21.9 mph 28.8 mph N/A   Clear
11:53 AM 55.0 °F - 32.0 °F 42% 29.73 in 10.0 mi SW 20.7 mph - N/A   Clear
12:53 PM 55.0 °F - 32.0 °F 42% 29.74 in 10.0 mi SW 27.6 mph 33.4 mph N/A   Clear
1:53 PM 54.0 °F - 28.9 °F 38% 29.75 in 10.0 mi SW 27.6 mph 39.1 mph N/A   Clear
2:53 PM 55.9 °F - 30.9 °F 39% 29.74 in 10.0 mi SSW 21.9 mph 32.2 mph N/A   Partly Cloudy
3:53 PM 55.9 °F - 28.9 °F 36% 29.76 in 10.0 mi SW 25.3 mph 31.1 mph N/A   Partly Cloudy
4:53 PM 54.0 °F - 28.9 °F 38% 29.78 in 10.0 mi SSW 26.5 mph 36.8 mph N/A   Partly Cloudy
5:53 PM 53.1 °F - 28.0 °F 38% 29.78 in 10.0 mi SSW 23.0 mph 31.1 mph N/A   Clear
6:53 PM 51.1 °F - 30.0 °F 44% 29.81 in 10.0 mi SW 20.7 mph 26.5 mph N/A   Partly Cloudy
7:53 PM 48.9 °F - 30.0 °F 48% 29.81 in 10.0 mi SW 17.3 mph 24.2 mph N/A   Mostly Cloudy
8:53 PM 46.9 °F - 30.9 °F 54% 29.82 in 10.0 mi WSW 10.4 mph - N/A   Scattered Clouds
9:53 PM 45.0 °F 39.7 °F 32.0 °F 60% 29.81 in 10.0 mi WSW 10.4 mph - N/A   Clear
10:53 PM 44.1 °F - 30.9 °F 60% 29.81 in 10.0 mi Calm Calm - N/A   Mostly Cloudy
11:53 PM 45.0 °F 43.5 °F 32.0 °F 60% 29.80 in 10.0 mi Variable 3.5 mph - N/A   Overcast